Location: Bannatyne
(13.0833°N, 59.5333°W)
Time: 21:07:11
(UTC+00:00)

Explorer 7 - Pass Details

Date: 24 January 2020
Orbit: 485 x 679 km, 50.3° (Epoch: 23 February)

Event Time Altitude Azimuth Distance (km) Brightness Sun altitude
Rises 11:44:08 0° 306° (NW) 2,745 9.8 17.0°
Reaches altitude 10° 11:46:31 10° 295° (WNW) 1,884 9.0 17.5°
Maximum altitude 11:50:19 30° 233° (SW) 1,071 8.2 18.3°
Drops below altitude 10° 11:54:21 10° 171° (S) 1,992 10.3 19.2°
Sets 11:56:56 0° 161° (SSE) 2,931 11.2 19.8°
